This is the latest recevied weather packets stored in our database for station/object CE1RLP-31. If no packets are shown the sender has not sent any weather packets the latest 10 day(s).
| Time | Temp. | Humidity | Pressure | Rain* | Wind** | Luminosity | Snow |
|---|---|---|---|---|---|---|---|
| 1777728157 | 14.44° C | 10% | 1101.6 hPa | - | - | - | - |
| 1777727257 | 13.89° C | 10% | 1101.5 hPa | - | - | - | - |
| 1777726357 | 13.33° C | 10% | 1101.2 hPa | - | - | - | - |
| 1777725457 | 12.78° C | 10% | 1101.1 hPa | - | - | - | - |
| 1777722757 | 10.56° C | 10% | 1100.7 hPa | - | - | - | - |
| 1777721856 | 10° C | 10% | 1100.6 hPa | - | - | - | - |
| 1777720956 | 10° C | 10% | 1100.6 hPa | - | - | - | - |
| 1777720056 | 9.44° C | 10% | 1100.3 hPa | - | - | - | - |
| 1777719156 | 9.44° C | 10% | 1100.3 hPa | - | - | - | - |
| 1777718256 | 9.44° C | 10% | 1100.3 hPa | - | - | - | - |
| 1777717356 | 9.44° C | 10% | 1100.1 hPa | - | - | - | - |
| 1777716456 | 9.44° C | 10% | 1099.9 hPa | - | - | - | - |
| 1777715557 | 9.44° C | 9% | 1099.9 hPa | - | - | - | - |
| 1777714657 | 9.44° C | 10% | 1099.8 hPa | - | - | - | - |
| 1777713757 | 8.89° C | 9% | 1099.6 hPa | - | - | - | - |
| 1777712857 | 8.89° C | 9% | 1099.7 hPa | - | - | - | - |
| 1777711957 | 8.89° C | 9% | 1099.7 hPa | - | - | - | - |
| 1777711057 | 8.89° C | 8% | 1099.7 hPa | - | - | - | - |
| 1777710157 | 8.89° C | 8% | 1099.8 hPa | - | - | - | - |
| 1777709257 | 8.89° C | 8% | 1099.9 hPa | - | - | - | - |
| 1777708356 | 8.89° C | 8% | 1099.9 hPa | - | - | - | - |
| 1777707456 | 8.89° C | 8% | 1099.8 hPa | - | - | - | - |
| 1777706556 | 8.89° C | 8% | 1099.9 hPa | - | - | - | - |
| 1777705656 | 9.44° C | 8% | 1099.9 hPa | - | - | - | - |
| 1777704756 | 8.89° C | 8% | 1101.8 hPa | - | - | - | - |
* Rain since midnight (hover to see other rain measurements)
** Current wind speed in m/s (hover to see current wind gust speed)